Hourly Data Report for March 27, 2003

SHERBROOKE A
QUEBEC

45°26'00.000" N
71°41'00.000" W
241.40 m
7028124
71610
YSC

Download Data

Hourly Data (March 2003)
Hourly Data Report for March 27, 2003
TIME
LST
Temp Definition
°C
Dew Point Definition
°C
Rel Hum Definition
%
Precip. Amount Definition
mm

Wind Dir Definition
10's deg

Wind Spd Definition
km/h
Visibility Definition
km
Stn Press Definition
kPa
Hmdx Definition


Wind Chill Definition


Weather Definition


00:00 1.9 1.8 99   16 4 3.9 98.21      
01:00 1.1 1.1 100     0 0.3 98.22      
02:00 -0.2 -0.2 100     0 0.3 98.22      
03:00 -1.1 -1.4 98   21 4 0.2 98.23   -2  
04:00 -0.3 -0.4 99   21 6 15.0 98.29   -2  
05:00 -0.3 -0.7 97   19 6 15.0 98.32   -2  
06:00 -0.3 -0.8 96   23 7 15.0 98.37   -3  
07:00 0.1 -0.3 97   22 11 15.0 98.47      
08:00 1.8 0.3 90   22 11 24.1 98.57     Mostly Cloudy
09:00 1.9 0.3 89   25 17 24.1 98.65     Mostly Cloudy
10:00 3.4 0.4 81   25 22 24.1 98.70     Mainly Clear
11:00 2.9 -0.4 79   25 13 24.1 98.79     Cloudy
12:00 4.4 -1.0 68   28 20 24.1 98.84     Mostly Cloudy
13:00 5.7 -2.0 58   27 28 24.1 98.90     Mostly Cloudy
14:00 5.1 -3.2 55   26 22 24.1 98.94     Mostly Cloudy
15:00 5.0 -3.3 55   27 19 24.1 98.95     Mostly Cloudy
16:00 4.8 -2.8 58   27 13 24.1 99.01     Mostly Cloudy
17:00 4.4 -3.2 58   26 11 24.1 99.08     Mostly Cloudy
18:00 4.3 -2.7 60   25 9 15.0 99.16      
19:00 2.8 -2.8 67   25 9 15.0 99.24      
20:00 -0.3 -3.3 80   22 6 15.0 99.32   -2  
21:00 -1.3 -3.6 84   21 6 15.0 99.38   -4  
22:00 -0.3 -3.4 80   21 7 12.9 99.45   -3  
23:00 -2.9 -4.1 91   27 4 15.0 99.48   -4  

Notes on Data Quality.

Legend

  • E = Estimated
  • M = Missing
  • NA = Not Available*
  • [empty] = Indicates an unobserved value
Date modified: